Location: Betpouey
(42.8833°N, 0.0333°E)
Time: 08:24:04
(UTC+00:00)

NOSS 3-2 (A) - Pass Details

Date: 01 December 2020
Orbit: 791 x 1417 km, 63.4° (Epoch: 20 December)

Event Time Altitude Azimuth Distance (km) Brightness Sun altitude
Rises 18:31:16 0° 215° (SW) 3,318 7.0 -22.2°
Reaches altitude 10° 18:33:34 10° 215° (SW) 2,428 6.2 -22.7°
Maximum altitude 18:39:09 88° 306° (NW) 902 3.2 -23.7°
Enters shadow 18:41:25 41° 34° (NE) 1,316 3.8 -24.1°
